Location: Dreilärchen
(47.9312°N, 8.6113°E)
Time: 00:09:50
(UTC+00:00)

Cosmos 407 Rocket - Pass Details

Date: 26 May 2022
Orbit: 743 x 786 km, 74.0° (Epoch: 02 July)

Event Time Altitude Azimuth Distance (km) Brightness Sun altitude
Rises 02:44:41 0° 335° (NNW) 3,283 7.0 -7.5°
Reaches altitude 10° 02:47:06 10° 333° (NNW) 2,347 6.2 -7.2°
Maximum altitude 02:52:23 67° 252° (WSW) 845 3.5 -6.5°
Drops below altitude 10° 02:57:35 10° 171° (S) 2,306 5.7 -5.9°
Sets 02:59:56 0° 168° (SSE) 3,221 6.4 -5.6°
